When you browse on this site, cookies collect data to enhance your experience and personalize the content and advertising you see.
Visit our Privacy Policy to learn more. By continuing to use the site, you agree to this use of cookies and data.
  • en Belgique
  • Liste des pays
  • À 7 jours
  • Température de l'eau
  • Carte météo
  • Widgets météo
  • user-avatar
    Se connecter

    Météo par heure à Odongk

    Ce jour, 1 Juin, Lundi

    Heure Température Précipitation Vent Pression Humidité
    00:00 +29°C° 0.2 mm 1 m/s 757 mmHg 83%
    01:00 +29°C° 0 mm 1 m/s 757 mmHg 82%
    02:00 +28°C° 0.1 mm 1 m/s 756 mmHg 82%
    03:00 +28°C° 0.1 mm 1 m/s 756 mmHg 83%
    04:00 +28°C° 0.1 mm 1 m/s 755 mmHg 83%
    05:00 +28°C° 0 mm 1 m/s 755 mmHg 82%
    06:00 +29°C° 0 mm 1 m/s 756 mmHg 80%
    07:00 +29°C° 0 mm 1 m/s 756 mmHg 78%
    08:00 +30°C° 0 mm 1 m/s 756 mmHg 72%
    09:00 +32°C° 0 mm 1 m/s 756 mmHg 67%
    10:00 +33°C° 0 mm 1 m/s 757 mmHg 61%
    11:00 +34°C° 0 mm 1 m/s 756 mmHg 57%
    12:00 +35°C° 0 mm 1 m/s 756 mmHg 53%
    13:00 +37°C° 0 mm 1 m/s 755 mmHg 48%
    14:00 +37°C° 0 mm 1 m/s 755 mmHg 48%
    15:00 +37°C° 0 mm 1 m/s 754 mmHg 47%
    16:00 +37°C° 0 mm 1 m/s 753 mmHg 47%
    17:00 +35°C° 0.2 mm 1 m/s 754 mmHg 53%
    18:00 +35°C° 0.2 mm 2 m/s 754 mmHg 59%
    19:00 +32°C° 0.2 mm 2 m/s 755 mmHg 65%
    20:00 +32°C° 0.3 mm 2 m/s 755 mmHg 68%
    21:00 +31°C° 0.3 mm 2 m/s 755 mmHg 72%
    22:00 +30°C° 0.3 mm 2 m/s 756 mmHg 76%
    23:00 +30°C° 1.3 mm 2 m/s 756 mmHg 79%

    Demain, 2 Juin, Mardi

    Heure Température Précipitation Vent Pression Humidité
    00:00 +29°C° 1.3 mm 2 m/s 755 mmHg 82%
    01:00 +28°C° 1.3 mm 2 m/s 755 mmHg 85%
    02:00 +28°C° 1 mm 2 m/s 755 mmHg 86%
    03:00 +28°C° 1 mm 2 m/s 755 mmHg 87%
    04:00 +28°C° 1 mm 2 m/s 754 mmHg 89%
    05:00 +28°C° 0.2 mm 2 m/s 755 mmHg 88%
    06:00 +28°C° 0.2 mm 3 m/s 755 mmHg 88%
    07:00 +28°C° 0.2 mm 4 m/s 756 mmHg 87%
    08:00 +29°C° 0 mm 4 m/s 756 mmHg 81%
    09:00 +32°C° 0 mm 4 m/s 756 mmHg 74%
    10:00 +34°C° 0 mm 4 m/s 755 mmHg 67%
    11:00 +34°C° 0 mm 4 m/s 755 mmHg 63%
    12:00 +35°C° 0 mm 4 m/s 755 mmHg 59%
    13:00 +36°C° 0 mm 4 m/s 755 mmHg 55%
    14:00 +36°C° 0.4 mm 4 m/s 754 mmHg 56%
    15:00 +36°C° 0.4 mm 4 m/s 753 mmHg 57%
    16:00 +36°C° 0.4 mm 4 m/s 752 mmHg 57%
    17:00 +34°C° 0.3 mm 4 m/s 753 mmHg 62%
    18:00 +33°C° 0.3 mm 4 m/s 753 mmHg 67%
    19:00 +32°C° 0.3 mm 4 m/s 754 mmHg 72%
    20:00 +30°C° 0 mm 4 m/s 754 mmHg 74%
    21:00 +30°C° 0 mm 4 m/s 755 mmHg 76%
    22:00 +29°C° 0 mm 4 m/s 755 mmHg 77%
    23:00 +29°C° 0.1 mm 3 m/s 755 mmHg 78%

    Après-demain, 3 Juin, Mercredi

    Heure Température Précipitation Vent Pression Humidité
    00:00 +29°C° 0.1 mm 3 m/s 755 mmHg 79%
    01:00 +29°C° 0.1 mm 2 m/s 755 mmHg 80%
    02:00 +29°C° 0 mm 2 m/s 754 mmHg 81%
    03:00 +28°C° 0 mm 2 m/s 754 mmHg 82%
    04:00 +28°C° 0 mm 2 m/s 754 mmHg 83%
    05:00 +28°C° 0 mm 2 m/s 754 mmHg 82%
    06:00 +29°C° 0 mm 2 m/s 754 mmHg 82%
    07:00 +29°C° 0 mm 2 m/s 755 mmHg 81%
    08:00 +31°C° 0 mm 2 m/s 755 mmHg 73%
    09:00 +33°C° 0 mm 3 m/s 755 mmHg 66%
    10:00 +35°C° 0 mm 3 m/s 755 mmHg 59%
    11:00 +36°C° 0 mm 3 m/s 754 mmHg 55%
    12:00 +37°C° 0 mm 2 m/s 754 mmHg 51%
    13:00 +38°C° 0 mm 2 m/s 753 mmHg 48%
    14:00 +37°C° 0.4 mm 3 m/s 753 mmHg 51%
    15:00 +36°C° 0.4 mm 3 m/s 752 mmHg 55%
    16:00 +36°C° 0.4 mm 3 m/s 752 mmHg 58%
    17:00 +34°C° 0.9 mm 3 m/s 752 mmHg 64%
    18:00 +33°C° 0.9 mm 3 m/s 753 mmHg 69%
    19:00 +31°C° 0.9 mm 3 m/s 753 mmHg 75%
    20:00 +30°C° 0 mm 2 m/s 753 mmHg 77%
    21:00 +30°C° 0 mm 2 m/s 754 mmHg 79%
    22:00 +29°C° 0 mm 2 m/s 754 mmHg 81%
    23:00 +29°C° 0 mm 2 m/s 754 mmHg 82%

    4 Juin, Jeudi

    Heure Température Précipitation Vent Pression Humidité
    00:00 +29°C° 0 mm 2 m/s 754 mmHg 83%
    01:00 +29°C° 0 mm 2 m/s 754 mmHg 84%
    02:00 +28°C° 0 mm 2 m/s 754 mmHg 85%
    03:00 +28°C° 0 mm 2 m/s 753 mmHg 85%
    04:00 +28°C° 0 mm 2 m/s 753 mmHg 86%
    05:00 +28°C° 0 mm 2 m/s 753 mmHg 84%
    06:00 +29°C° 0 mm 3 m/s 754 mmHg 83%
    07:00 +29°C° 0 mm 3 m/s 754 mmHg 81%
    08:00 +32°C° 0 mm 4 m/s 754 mmHg 74%
    09:00 +34°C° 0 mm 4 m/s 755 mmHg 67%
    10:00 +35°C° 0 mm 5 m/s 755 mmHg 60%
    11:00 +36°C° 0 mm 5 m/s 754 mmHg 57%
    12:00 +37°C° 0 mm 5 m/s 754 mmHg 53%
    13:00 +38°C° 0 mm 4 m/s 753 mmHg 49%
    14:00 +39°C° 0.1 mm 5 m/s 753 mmHg 51%
    15:00 +37°C° 0.1 mm 5 m/s 752 mmHg 52%
    16:00 +37°C° 0.1 mm 5 m/s 752 mmHg 54%
    17:00 +35°C° 0.5 mm 5 m/s 752 mmHg 60%
    18:00 +34°C° 0.5 mm 4 m/s 753 mmHg 66%
    19:00 +32°C° 0.5 mm 4 m/s 753 mmHg 72%
    20:00 +32°C° 0.1 mm 4 m/s 754 mmHg 73%
    21:00 +30°C° 0.1 mm 4 m/s 754 mmHg 74%
    22:00 +30°C° 0.1 mm 4 m/s 755 mmHg 76%
    23:00 +29°C° 0 mm 4 m/s 754 mmHg 77%

    5 Juin, Vendredi

    Heure Température Précipitation Vent Pression Humidité
    00:00 +29°C° 0 mm 3 m/s 754 mmHg 79%
    01:00 +29°C° 0 mm 3 m/s 753 mmHg 80%
    02:00 +28°C° 0 mm 3 m/s 753 mmHg 81%
    03:00 +28°C° 0 mm 3 m/s 753 mmHg 82%
    04:00 +28°C° 0 mm 3 m/s 753 mmHg 83%
    05:00 +28°C° 0 mm 3 m/s 753 mmHg 81%
    06:00 +29°C° 0 mm 3 m/s 754 mmHg 80%
    07:00 +29°C° 0 mm 3 m/s 754 mmHg 78%
    08:00 +32°C° 0 mm 4 m/s 754 mmHg 72%
    09:00 +34°C° 0 mm 4 m/s 755 mmHg 65%
    10:00 +35°C° 0 mm 5 m/s 755 mmHg 58%
    11:00 +36°C° 0 mm 4 m/s 754 mmHg 54%
    12:00 +37°C° 0 mm 4 m/s 754 mmHg 51%
    13:00 +38°C° 0 mm 4 m/s 753 mmHg 47%
    14:00 +38°C° 0.2 mm 4 m/s 753 mmHg 49%
    15:00 +37°C° 0.2 mm 5 m/s 752 mmHg 51%
    16:00 +37°C° 0.2 mm 5 m/s 752 mmHg 54%
    17:00 +35°C° 0.3 mm 5 m/s 752 mmHg 59%
    18:00 +34°C° 0.3 mm 4 m/s 753 mmHg 65%
    19:00 +32°C° 0.3 mm 4 m/s 753 mmHg 70%
    20:00 +32°C° 0.1 mm 4 m/s 754 mmHg 72%
    21:00 +30°C° 0.1 mm 3 m/s 754 mmHg 74%
    22:00 +30°C° 0.1 mm 3 m/s 755 mmHg 76%
    23:00 +30°C° 0 mm 3 m/s 754 mmHg 77%

    6 Juin, Samedi

    Heure Température Précipitation Vent Pression Humidité
    00:00 +29°C° 0 mm 3 m/s 754 mmHg 77%
    01:00 +29°C° 0 mm 3 m/s 753 mmHg 78%
    02:00 +29°C° 0 mm 3 m/s 753 mmHg 78%
    03:00 +29°C° 0 mm 3 m/s 753 mmHg 79%
    04:00 +28°C° 0 mm 3 m/s 752 mmHg 80%
    05:00 +29°C° 0 mm 3 m/s 753 mmHg 79%
    06:00 +29°C° 0 mm 4 m/s 753 mmHg 78%
    07:00 +30°C° 0 mm 4 m/s 753 mmHg 78%
    08:00 +32°C° 0 mm 4 m/s 754 mmHg 71%
    09:00 +34°C° 0 mm 4 m/s 754 mmHg 65%
    10:00 +35°C° 0 mm 4 m/s 754 mmHg 59%
    11:00 +36°C° 0.2 mm 4 m/s 754 mmHg 56%
    12:00 +37°C° 0.2 mm 4 m/s 753 mmHg 53%
    13:00 +37°C° 0.2 mm 5 m/s 752 mmHg 50%
    14:00 +37°C° 0.1 mm 5 m/s 752 mmHg 52%
    15:00 +37°C° 0.1 mm 5 m/s 752 mmHg 53%
    16:00 +36°C° 0.1 mm 5 m/s 751 mmHg 54%
    17:00 +35°C° 0 mm 5 m/s 752 mmHg 58%
    18:00 +34°C° 0 mm 5 m/s 752 mmHg 62%
    19:00 +32°C° 0 mm 6 m/s 753 mmHg 66%
    20:00 +32°C° 0.3 mm 5 m/s 753 mmHg 69%
    21:00 +30°C° 0.3 mm 5 m/s 754 mmHg 72%
    22:00 +29°C° 0.3 mm 5 m/s 754 mmHg 75%
    23:00 +29°C° 0 mm 5 m/s 754 mmHg 76%
    Voir plus